sat.trackr.live / text

‹ back to catalog

STARLINK-3179

NORAD 51141 · 2022-005AP

PAYLOAD ACTIVE UNKNOWN

§ Identity

Operator
Country
US
Launch date
2022-01-19
Launch site
AFETR
Launch vehicle
Mass (kg)
RCS (m²)

Purposes: comms

External: N2YO · Heavens-Above · Gunter

§ Orbital elements

Epoch: 2026-05-24T17:53:23.102592Z

Period
95.44 min
Inclination
53.2156°
Eccentricity
0.0001310
Mean motion
15.08840581 rev/d
Perigee alt
538.8 km
Apogee alt
540.6 km
Semi-major
6,917.9 km
B*
1.1351e-5
RAAN
317.6914°
Arg perigee
92.4668°
Mean anomaly
267.6474°
Rev number
24,022

§ Raw data

STARLINK-31791 51141U 22005AP  26144.74540628 -.00000107  00000+0  11351-4 0  99972 51141  53.2156 317.6914 0001310  92.4668 267.6474 15.08840581240223

JSON: /api/v1/satellites/51141 · /tle

For live sub-satellite position, see the globe view (requires WebGL).

§ Visibility from observer

Set your observer location to see the next 7 days of passes ≥ 10°. The values pass through the URL so the page stays shareable.

No JS? Fill the form by hand. The geolocation button needs JavaScript.